| time (UTC) | temp C | wind direction | speed KPH | gust KPH | rain 1hr cm | rain 24hr cm | rain mn cm | humidity % | barometer mb |
| 20260510164544 | 22 | 299 | 4.8 | 12.9 | 0.00 | 0.25 | 0.03 | 57 | 1005.3 |
| 20260510163101 | 22 | 321 | 6.4 | 14.5 | 0.00 | 0.25 | 0.03 | 61 | 1005.5 |
| 20260510161521 | 22 | 313 | 3.2 | 9.7 | 0.00 | 0.25 | 0.03 | 63 | 1005.4 |
| 20260510160120 | 22 | 304 | 0.0 | 4.8 | 0.00 | 0.25 | 0.03 | 67 | 1005.4 |
| 20260510154504 | 21 | 309 | 0.0 | 4.8 | 0.00 | 0.25 | 0.03 | 67 | 1005.6 |
| 20260510153023 | 20 | 309 | 3.2 | 9.7 | 0.00 | 0.25 | 0.03 | 71 | 1005.6 |
| 20260510151541 | 20 | 289 | 6.4 | 12.9 | 0.00 | 0.25 | 0.03 | 72 | 1005.6 |
| 20260510150055 | 18 | 306 | 4.8 | 11.3 | 0.00 | 0.25 | 0.03 | 76 | 1005.8 |
| 20260510144510 | 18 | 302 | 1.6 | 9.7 | 0.00 | 0.25 | 0.03 | 80 | 1005.8 |
| 20260510143028 | 17 | 299 | 1.6 | 9.7 | 0.00 | 0.25 | 0.03 | 85 | 1005.7 |
| 20260510141536 | 16 | 296 | 0.0 | 6.4 | 0.00 | 0.25 | 0.03 | 91 | 1005.8 |
| 20260510134509 | 15 | 295 | 0.0 | 6.4 | 0.00 | 0.25 | 0.03 | 97 | 1005.7 |
| 20260510133044 | 13 | 295 | 0.0 | 6.4 | 0.00 | 0.25 | 0.03 | 97 | 1005.6 |
| 20260510131559 | 13 | 295 | 0.0 | 1.6 | 0.00 | 0.25 | 0.03 | 97 | 1005.6 |
| 20260510130003 | 12 | 295 | 0.0 | 0.0 | 0.00 | 0.25 | 0.03 | 97 | 1005.8 |
| 20260510124518 | 12 | 295 | 0.0 | 1.6 | 0.00 | 0.25 | 0.03 | 97 | 1005.8 |
| 20260510123049 | 11 | 295 | 0.0 | 1.6 | 0.00 | 0.25 | 0.03 | 97 | 1005.4 |
| 20260510121520 | 11 | 295 | 0.0 | 3.2 | 0.00 | 0.25 | 0.03 | 97 | 1005.2 |
| 20260510120042 | 11 | 296 | 0.0 | 1.6 | 0.00 | 0.25 | 0.03 | 97 | 1005.0 |
| 20260510114503 | 10 | 295 | 0.0 | 3.2 | 0.00 | 0.25 | 0.03 | 97 | 1005.0 |
| 20260510113036 | 10 | 296 | 0.0 | 4.8 | 0.00 | 0.25 | 0.03 | 97 | 1004.7 |
| 20260510111614 | 10 | 295 | 0.0 | 1.6 | 0.00 | 0.25 | 0.03 | 97 | 1005.0 |
| 20260510110033 | 10 | 295 | 0.0 | 6.4 | 0.00 | 0.25 | 0.03 | 97 | 1004.8 |
| 20260510104551 | 10 | 296 | 0.0 | 0.0 | 0.00 | 0.25 | 0.03 | 97 | 1004.4 |
| 20260510103020 | 10 | 295 | 0.0 | 4.8 | 0.03 | 0.25 | 0.03 | 97 | 1004.2 |
| 20260510101539 | 10 | 295 | 0.0 | 0.0 | 0.03 | 0.25 | 0.03 | 97 | 1004.3 |
| 20260510100054 | 10 | 295 | 0.0 | 1.6 | 0.03 | 0.25 | 0.03 | 97 | 1004.3 |
| 20260510094504 | 10 | 295 | 0.0 | 1.6 | 0.03 | 0.25 | 0.03 | 97 | 1004.0 |
| 20260510093022 | 10 | 296 | 1.6 | 6.4 | 0.00 | 0.23 | 0.00 | 97 | 1004.0 |
| 20260510091531 | 10 | 295 | 0.0 | 0.0 | 0.00 | 0.23 | 0.00 | 97 | 1004.0 |
| 20260510090054 | 10 | 295 | 0.0 | 4.8 | 0.00 | 0.23 | 0.00 | 97 | 1004.2 |
| 20260510084517 | 10 | 295 | 0.0 | 4.8 | 0.00 | 0.23 | 0.00 | 97 | 1003.7 |
| 20260510083043 | 9 | 295 | 1.6 | 8.0 | 0.00 | 0.23 | 0.00 | 97 | 1003.6 |
| 20260510081504 | 9 | 296 | 0.0 | 0.0 | 0.00 | 0.23 | 0.00 | 97 | 1003.4 |
| 20260510080017 | 9 | 296 | 0.0 | 0.0 | 0.00 | 0.23 | 0.00 | 97 | 1003.4 |
| 20260510074533 | 9 | 296 | 0.0 | 3.2 | 0.00 | 0.23 | 0.00 | 97 | 1003.3 |
| 20260510073006 | 9 | 296 | 0.0 | 1.6 | 0.00 | 0.23 | 0.00 | 97 | 1003.3 |
| 20260510071523 | 9 | 296 | 0.0 | 1.6 | 0.00 | 0.23 | 0.00 | 97 | 1003.4 |
| 20260510070040 | 9 | 296 | 0.0 | 1.6 | 0.00 | 0.23 | 0.00 | 97 | 1003.1 |
| 20260510064508 | 9 | 296 | 0.0 | 0.0 | 0.00 | 0.23 | 0.00 | 97 | 1002.8 |
| 20260510063026 | 9 | 296 | 0.0 | 1.6 | 0.00 | 0.23 | 0.00 | 97 | 1002.7 |
| 20260510061557 | 10 | 296 | 0.0 | 0.0 | 0.00 | 0.23 | 0.00 | 97 | 1002.9 |
| 20260510060019 | 9 | 296 | 0.0 | 0.0 | 0.00 | 0.23 | 0.00 | 97 | 1002.9 |
| 20260510054533 | 9 | 296 | 0.0 | 0.0 | 0.00 | 0.23 | 0.00 | 96 | 1003.1 |
| 20260510053049 | 9 | 296 | 0.0 | 0.0 | 0.00 | 0.23 | 0.00 | 96 | 1003.2 |
| 20260510051516 | 10 | 296 | 0.0 | 0.0 | 0.00 | 0.23 | 0.00 | 96 | 1003.3 |
| 20260510050053 | 10 | 296 | 0.0 | 0.0 | 0.00 | 0.23 | 0.00 | 96 | 1003.4 |
| 20260510044503 | 10 | 296 | 0.0 | 0.0 | 0.00 | 0.23 | 0.00 | 96 | 1003.4 |
| 20260510043022 | 10 | 296 | 0.0 | 0.0 | 0.00 | 0.23 | 0.00 | 96 | 1003.5 |
| 20260510041532 | 10 | 296 | 0.0 | 0.0 | 0.00 | 0.23 | 0.00 | 96 | 1003.6 |
| 20260510040055 | 10 | 296 | 0.0 | 0.0 | 0.00 | 0.23 | 0.00 | 96 | 1003.7 |
| 20260510034524 | 10 | 295 | 0.0 | 0.0 | 0.00 | 0.23 | 0.23 | 96 | 1003.5 |
| 20260510033059 | 10 | 296 | 0.0 | 0.0 | 0.00 | 0.23 | 0.23 | 96 | 1003.3 |
| 20260510031524 | 10 | 296 | 0.0 | 0.0 | 0.00 | 0.23 | 0.23 | 96 | 1003.1 |
| 20260510030046 | 10 | 296 | 0.0 | 0.0 | 0.00 | 0.23 | 0.23 | 96 | 1003.1 |
| 20260510024602 | 10 | 296 | 0.0 | 0.0 | 0.00 | 0.23 | 0.23 | 96 | 1003.0 |
| 20260510023013 | 10 | 296 | 0.0 | 0.0 | 0.00 | 0.23 | 0.23 | 96 | 1003.1 |
| 20260510021539 | 10 | 296 | 0.0 | 0.0 | 0.00 | 0.23 | 0.23 | 95 | 1003.0 |
| 20260510020011 | 11 | 296 | 0.0 | 0.0 | 0.00 | 0.23 | 0.23 | 95 | 1002.9 |
| 20260510014546 | 11 | 296 | 0.0 | 0.0 | 0.00 | 0.23 | 0.23 | 95 | 1002.9 |
| 20260510013014 | 11 | 296 | 0.0 | 0.0 | 0.00 | 0.23 | 0.23 | 95 | 1002.9 |
| 20260510011542 | 11 | 296 | 0.0 | 0.0 | 0.00 | 0.23 | 0.23 | 95 | 1002.8 |
| 20260510010128 | 11 | 296 | 0.0 | 0.0 | 0.00 | 0.23 | 0.23 | 95 | 1002.7 |
| 20260510004514 | 11 | 296 | 0.0 | 0.0 | 0.00 | 0.23 | 0.23 | 94 | 1002.5 |
| 20260510003048 | 12 | 296 | 0.0 | 0.0 | 0.00 | 0.23 | 0.23 | 93 | 1002.5 |
| 20260510001506 | 12 | 296 | 0.0 | 0.0 | 0.00 | 0.23 | 0.23 | 93 | 1002.4 |
| 20260510000021 | 12 | 296 | 0.0 | 0.0 | 0.00 | 0.23 | 0.23 | 92 | 1002.5 |
| 20260509234537 | 13 | 295 | 0.0 | 0.0 | 0.00 | 0.23 | 0.23 | 92 | 1002.5 |
| 20260509233011 | 13 | 296 | 0.0 | 0.0 | 0.00 | 0.23 | 0.23 | 91 | 1002.4 |
| 20260509231536 | 13 | 296 | 0.0 | 1.6 | 0.00 | 0.23 | 0.23 | 92 | 1002.3 |
| 20260509224537 | 13 | 296 | 0.0 | 1.6 | 0.00 | 0.23 | 0.23 | 93 | 1002.4 |
| 20260509223101 | 13 | 296 | 0.0 | 4.8 | 0.00 | 0.23 | 0.23 | 93 | 1002.3 |
| 20260509221528 | 13 | 296 | 0.0 | 6.4 | 0.00 | 0.23 | 0.23 | 93 | 1002.3 |
| 20260509220133 | 13 | 296 | 3.2 | 6.4 | 0.03 | 0.23 | 0.23 | 92 | 1002.5 |
| 20260509214555 | 13 | 296 | 0.0 | 6.4 | 0.23 | 0.23 | 0.23 | 92 | 1002.5 |
| 20260509213008 | 13 | 295 | 0.0 | 3.2 | 0.23 | 0.23 | 0.23 | 91 | 1002.8 |
| 20260509211610 | 13 | 295 | 0.0 | 0.0 | 0.23 | 0.23 | 0.23 | 91 | 1002.8 |
| 20260509210045 | 13 | 295 | 0.0 | 4.8 | 0.20 | 0.20 | 0.20 | 89 | 1002.6 |
| 20260509204607 | 13 | 295 | 0.0 | 1.6 | 0.00 | 0.00 | 0.00 | 87 | 1002.5 |
| 20260509203025 | 14 | 306 | 3.2 | 8.0 | 0.00 | 0.00 | 0.00 | 86 | 1002.6 |
| 20260509201603 | 14 | 296 | 1.6 | 9.7 | 0.00 | 0.00 | 0.00 | 87 | 1002.4 |
| 20260509200019 | 14 | 290 | 1.6 | 17.7 | 0.00 | 0.00 | 0.00 | 87 | 1002.7 |
| 20260509194550 | 14 | 317 | 1.6 | 11.3 | 0.00 | 0.00 | 0.00 | 85 | 1002.6 |
| 20260509193010 | 14 | 296 | 4.8 | 11.3 | 0.00 | 0.00 | 0.00 | 85 | 1003.0 |
| 20260509191518 | 14 | 7 | 1.6 | 6.4 | 0.00 | 0.00 | 0.00 | 86 | 1003.5 |
| 20260509190033 | 14 | 303 | 4.8 | 9.7 | 0.00 | 0.00 | 0.00 | 84 | 1003.3 |
| 20260509184601 | 14 | 289 | 0.0 | 8.0 | 0.00 | 0.00 | 0.00 | 84 | 1003.5 |
| 20260509183024 | 15 | 294 | 4.8 | 12.9 | 0.00 | 0.00 | 0.00 | 82 | 1003.5 |
| 20260509181654 | 15 | 311 | 3.2 | 9.7 | 0.00 | 0.00 | 0.00 | 81 | 1003.6 |
| 20260509180032 | 15 | 344 | 1.6 | 8.0 | 0.00 | 0.00 | 0.00 | 78 | 1003.6 |
| 20260509174558 | 15 | 292 | 4.8 | 12.9 | 0.00 | 0.00 | 0.00 | 77 | 1003.4 |
| 20260509173025 | 15 | 295 | 4.8 | 20.9 | 0.00 | 0.00 | 0.00 | 76 | 1003.3 |
| 20260509171536 | 15 | 314 | 3.2 | 11.3 | 0.00 | 0.00 | 0.00 | 75 | 1003.6 |
| 20260509170006 | 16 | 311 | 6.4 | 16.1 | 0.00 | 0.00 | 0.00 | 78 | 1003.6 |